Weather History for KACV - July, 2014

Change the Weather History Date:

Tuesday, July 22, 2014

  Actual Average Record
Temperature  
Mean Temperature 59 °F -  
Max Temperature 64 °F 61 °F 75 °F (2006)
Min Temperature 54 °F 50 °F 46 °F (2008)
Degree Days  
Heating Degree Days 6    
Growing Degree Days 9 (Base 50)    
Moisture  
Dew Point 54 °F    
Average Humidity 84    
Maximum Humidity 94    
Minimum Humidity 73    
Precipitation  
Precipitation 0.00 in - - ()
Sea Level Pressure  
Sea Level Pressure 30.08 in    
Wind  
Wind Speed 3 mph (WSW)    
Max Wind Speed 10 mph    
Max Gust Speed -    
Visibility 8 miles    
Events      
Averages and records for this station are not official NWS values.
T = Trace of Precipitation, MM = Missing Value Source: NWS Daily Summary

Daily Weather History Graph

Daily Weather History Graph

Search for Another Location

Airport or City:

Trip Planner

Search our weather history database for the weather conditions in past years. The results will help you decide how hot, cold, wet, or windy it might be!

Date:

Astronomy

Jul. 22, 2014 Rise Set
Actual Time 6:03 AM PDT 8:41 PM PDT
Civil Twilight 5:31 AM PDT 9:13 PM PDT
Nautical Twilight 4:51 AM PDT 9:53 PM PDT
Astronomical Twilight 4:06 AM PDT 10:38 PM PDT
Moon 2:40 AM PDT (7/22) 5:24 PM PDT (7/22)
Length of Visible Light 15h 42m
Length of Day
14h 38m
Waning Crescent, 15% of the Moon is Illuminated
Jul 22
Waning Crescent
Jul 26
New
Aug 3
First Quarter
Aug 10
Full
Aug 17
Last Quarter

Hourly Weather History & Observations

Time (PDT) Temp. Dew Point Humidity Pressure Visibility Wind Dir Wind Speed Gust Speed Precip Events Conditions
12:53 AM 57.0 °F 53.1 °F 87% 30.07 in 6.0 mi Calm Calm - N/A   Partly Cloudy
1:53 AM 55.9 °F 52.0 °F 87% 30.06 in 10.0 mi East 3.5 mph - N/A   Partly Cloudy
2:53 AM 55.9 °F 52.0 °F 87% 30.05 in 10.0 mi Calm Calm - N/A   Clear
3:53 AM 57.0 °F 53.1 °F 87% 30.05 in 10.0 mi NNW 4.6 mph - N/A   Partly Cloudy
4:21 AM 55.9 °F 53.1 °F 90% 30.04 in 5.0 mi NNW 3.5 mph - N/A   Mostly Cloudy
4:53 AM 55.9 °F 53.1 °F 90% 30.06 in 6.0 mi Calm Calm - N/A   Mostly Cloudy
5:06 AM 55.9 °F 53.1 °F 90% 30.04 in 7.0 mi Calm Calm - N/A   Scattered Clouds
5:53 AM 54.0 °F 52.0 °F 93% 30.06 in 6.0 mi Calm Calm - N/A   Clear
6:03 AM 54.0 °F 51.1 °F 90% 30.04 in 6.0 mi Calm Calm - N/A   Partly Cloudy
6:24 AM 54.0 °F 52.0 °F 93% 30.04 in 10.0 mi Calm Calm - N/A   Mostly Cloudy
7:09 AM 57.0 °F 54.0 °F 89% 30.05 in 1.8 mi Calm Calm - N/A   Overcast
7:37 AM 57.0 °F 55.0 °F 93% 30.06 in 3.0 mi South 3.5 mph - N/A   Overcast
7:53 AM 57.0 °F 55.0 °F 93% 30.09 in 3.0 mi SE 3.5 mph - N/A   Overcast
8:25 AM 57.9 °F 55.0 °F 90% 30.08 in 1.8 mi WSW 6.9 mph - N/A   Overcast
8:36 AM 57.0 °F 55.0 °F 93% 30.08 in 0.8 mi WSW 5.8 mph - N/A   Overcast
8:46 AM 57.0 °F 55.0 °F 93% 30.08 in 1.8 mi WSW 4.6 mph - N/A   Overcast
8:49 AM 57.2 °F 55.4 °F 94% 30.08 in 3.0 mi West 4.6 mph - N/A   Overcast
8:53 AM 57.9 °F 55.0 °F 90% 30.10 in 6.0 mi SW 5.8 mph - N/A   Overcast
9:25 AM 59.0 °F 55.0 °F 87% 30.08 in 10.0 mi WSW 5.8 mph - N/A   Overcast
9:53 AM 59.0 °F 55.0 °F 87% 30.09 in 10.0 mi West 4.6 mph - N/A   Overcast
10:15 AM 60.1 °F 55.0 °F 83% 30.07 in 10.0 mi SSW 3.5 mph - N/A   Overcast
10:53 AM 62.1 °F 55.0 °F 78% 30.09 in 10.0 mi WSW 6.9 mph - N/A   Overcast
11:53 AM 64.0 °F 55.9 °F 75% 30.09 in 10.0 mi West 6.9 mph - N/A   Scattered Clouds
12:26 PM 64.0 °F 55.0 °F 73% 30.08 in 10.0 mi West 10.4 mph - N/A   Partly Cloudy
12:48 PM 62.6 °F 55.4 °F 77% 30.09 in 10.0 mi West 8.1 mph - N/A   Mostly Cloudy
1:08 PM 62.1 °F 55.0 °F 78% 30.09 in 10.0 mi WNW 6.9 mph - N/A   Overcast
1:36 PM 62.1 °F 55.9 °F 80% 30.09 in 10.0 mi SW 4.6 mph - N/A   Overcast
1:53 PM 62.1 °F 55.0 °F 78% 30.11 in 10.0 mi WSW 5.8 mph - N/A   Overcast
2:53 PM 62.1 °F 55.0 °F 78% 30.12 in 10.0 mi West 5.8 mph - N/A   Overcast
3:53 PM 63.0 °F 55.0 °F 75% 30.11 in 10.0 mi WNW 5.8 mph - N/A   Overcast
4:34 PM 62.1 °F 55.0 °F 78% 30.09 in 10.0 mi WNW 4.6 mph - N/A   Overcast
4:53 PM 62.1 °F 55.0 °F 78% 30.11 in 10.0 mi Variable 3.5 mph - N/A   Overcast
5:53 PM 63.0 °F 55.0 °F 75% 30.10 in 10.0 mi WSW 3.5 mph - N/A   Overcast
6:53 PM 63.0 °F 55.0 °F 75% 30.10 in 10.0 mi West 3.5 mph - N/A   Overcast
7:53 PM 62.1 °F 54.0 °F 75% 30.10 in 10.0 mi West 3.5 mph - N/A   Overcast
8:53 PM 62.1 °F 54.0 °F 75% 30.11 in 10.0 mi Calm Calm - N/A   Overcast
9:53 PM 61.0 °F 54.0 °F 78% 30.12 in 10.0 mi SSE 3.5 mph - N/A   Overcast
10:53 PM 60.1 °F 54.0 °F 80% 30.13 in 10.0 mi Calm Calm - N/A   Overcast
11:53 PM 61.0 °F 55.0 °F 81% 30.12 in 10.0 mi Calm Calm - N/A   Overcast